Preview of NWS' New Version of Forecast
This preview is not operational and should not be used for support decisions.

Regional Weather Roundup (RWR)

Issued by National Weather Service (NWS)

                            
000
ASUS45 KBOU 162110
RWRCO 

WEATHER ROUNDUP FOR COLORADO
NATIONAL WEATHER SERVICE DENVER/BOULDER CO
200 PM MST SAT FEB 16 2019

NOTE: "FAIR" INDICATES FEW OR NO CLOUDS BELOW 12000 FEET WITH NO
SIGNIFICANT WEATHER AND/OR OBSTRUCTIONS TO VISIBILITY.

COZ001>005-013-030-031-162200-
...NORTHWEST COLORADO...
  
CITY           SKY/WX    TMP DP  RH WIND       PRES   REMARKS
CRAIG          FAIR      25  12  58 W15       29.71S WCI  13          
HAYDEN         FAIR      24  13  62 W17       29.70S WCI  11          
MEEKER         PTSUNNY   26  16  65 W9        29.71S WCI  17          
RANGELY        MOCLDY    31  21  65 W6        29.76S WCI  25          
RABBIT EARS PA CLOUDY     7   3  85 W15G29    29.52R WCI -11          
STEAMBOAT SPGS CLOUDY    23  14  68 SW14G20   29.65F WCI  11          
WALDEN         CLOUDY    19   9  63 W15       29.58S WCI   5          
$$

COZ006>008-011-162200-
...WEST CENTRAL VALLEYS...
  
CITY           SKY/WX    TMP DP  RH WIND       PRES   REMARKS
GRAND JUNCTION FAIR      37  21  52 NW20      29.75S                  
MONTROSE       FAIR      33  16  49 NW17G26   29.74F WCI  22          
EAGLE          CLOUDY    28  20  71 VRB6      29.68R WCI  22          
RIFLE          CLOUDY    26  23  88 SW5       29.74F WCI  20          
DELTA          LGT SNOW  34  22  60 NW20G33   29.75R WCI  23          
NUCLA          PTSUNNY   36  14  41 W16G22    29.77R                  
$$

COZ017>023-064>068-162200-
...SOUTHWEST COLORADO...
  
CITY           SKY/WX    TMP DP  RH WIND       PRES   REMARKS
DURANGO        LGT SNOW  28  17  63 W22G35    29.69R WCI  14          
CORTEZ         CLOUDY    34  18  52 N10       29.74F WCI  26          
PAGOSA SPRINGS NOT AVBL                                               
TELLURIDE      LGT SNOW  18  10  73 W9        29.69R WCI   6          
WOLF CREEK PAS   N/A      7   5  92 SW20G29   29.56S WCI -13          
$$

COZ009-010-012-014-032>034-037-058>063-162200-
...CENTRAL COLORADO...
  
CITY           SKY/WX    TMP DP  RH WIND       PRES   REMARKS
ASPEN          FLURRIES  20  10  65 NW16G36   29.62R WCI   6          
BUENA VISTA    LGT SNOW  26  13  59 W18G32    29.51R WCI  12          
COPPER MTN     LGT SNOW   9   1  72 MISG      29.45R VSB 3/4          
BERTHOUD PASS  CLOUDY     1  -9  60 MISG      29.33F                  
COTTONWOOD PAS LGT SNOW  21  14  73 N7        29.48R VSB 3/4 WCI  13  
GUNNISON       FAIR      23   9  55 W20G29    29.61R WCI   8          
GRANBY         MOCLDY    20  11  67 W20G25    29.56R HAZE    WCI   4  
KREMMLING      CLOUDY    25   9  50 NW12G21   29.62S WCI  14          
LEADVILLE      LGT SNOW  14   6  70 NW14G26   29.49R WCI  -1          
MONARCH PASS     N/A      7   3  85 W36       29.54S WCI -18          
SALIDA         CLOUDY    32   9  38 SW15G31   29.59S WCI  21          
SUNLIGHT       CLOUDY     7   3  85 MISG      29.62S                  
WILKERSON PASS FAIR      19   3  49 W9G20     29.42S WCI   9          
$$

COZ069>075-162200-
...SAN LUIS VALLEY/SANGRE DE CRISTO MOUNTAINS...
  
CITY           SKY/WX    TMP DP  RH WIND       PRES   REMARKS
ALAMOSA        LGT SNOW  28  19  69 NW28G43   29.55R WCI  13          
DEL NORTE      PTSUNNY   29   2  31 NW23G32   29.55R WCI  16          
LA VETA PASS   NOT AVBL                                               
SAGUACHE       CLOUDY    27  10  50 NW18G36   29.56R WCI  13          
$$

COZ035-036-038>040-162200-
...NORTHERN COLORADO FRONT RANGE...
  
CITY           SKY/WX    TMP DP  RH WIND       PRES   REMARKS
DENVER INTL AP CLOUDY    33  21  61 W14       29.49R WCI  23          
AURORA         LGT SNOW  30  28  91 NW13      29.50R FOG     WCI  20  
FRONT RANGE AP PTSUNNY   36  21  55 W14       29.49R                  
ERIE MUNI ARPT LGT SNOW  32  27  81 CALM      29.55R                  
BOULDER MUN AP LGT SNOW  32  28  86 SW3       29.49R VSB 1            
CENTENNIAL     SNOW      28  27  96 N10       29.48R VSB 1/2 WCI  19  
BROOMFIELD     CLOUDY    32  27  80 NE10      29.49R VSB 1   WCI  24  
FORT COLLINS   CLOUDY    35  18  49 N13G22    29.50R HAZE    WCI  26  
LONGMONT       PTSUNNY   36  27  70 S7        29.52R                  
$$

COZ041-046-047-076>085-087-088-162200-
...PIKES PEAK/PALMER DIVIDE AND SOUTHERN FOOTHILLS...
  
CITY           SKY/WX    TMP DP  RH WIND       PRES   REMARKS
COLO. SPRINGS  FAIR      45   7  21 NW25G44   29.39R                  
A. F. ACADEMY  CLOUDY    37  17  44 N28G41    29.40R                  
SCHRIEVER AFB  NOT AVBL                                               
CHEYENNE MTN   FAIR      40   2  20 N10G17    29.33R                  
ELLICOTT       NOT AVBL                                               
FALCON         PTSUNNY   40  11  30 N23G32    29.42R                  
FORT CARSON    FAIR      47   4  17 NW12G22   29.37R                  
LIMON          PTSUNNY   36  19  50 N18G25    29.43R                  
MONUMENT HILL  LGT SNOW  27  23  86 N20G25    29.47R VSB 1   WCI  13  
CANON CITY     PTSUNNY   52   9  17 NW24G33   29.40S                  
WALSENBURG     NOT AVBL                                               
TRINIDAD       FAIR      48   1  14 W39G55    29.44F                  
$$

COZ042>045-048>051-090-091-162200-
...NORTHEAST COLORADO...
  
CITY           SKY/WX    TMP DP  RH WIND       PRES   REMARKS
GREELEY ARPT   CLOUDY    38   7  27 N32G38    29.49R                  
AKRON          CLOUDY    29  20  69 E5        29.48R WCI  24          
BURLINGTON     CLOUDY    24  22  91 CALM      29.48R                  
WRAY           CLOUDY    27  21  80 SE3       29.54R                  
YUMA           NOT AVBL                                               
STERLING       FAIR      32  23  69 NE6       29.49S WCI  26          
HOLYOKE        CLOUDY    27  25  93 S6        29.54R WCI  20          
FORT MORGAN      N/A     38  17  42 NE8       29.48S                  
$$

COZ086-089-092>099-162200-
...SOUTHEAST COLORADO...
  
CITY           SKY/WX    TMP DP  RH WIND       PRES   REMARKS
PUEBLO         FAIR      54   5  14 W30G48    29.37F                  
LA JUNTA       FAIR      48  24  39 NW12G23   29.40F                  
LAMAR          FAIR      48  23  37 N6        29.38F                  
SPRINGFIELD      N/A     57  10  15 W20G36    29.36F                  
$$